This is the latest recevied weather packets stored in our database for station/object K0SNA. If no packets are shown the sender has not sent any weather packets the latest 10 day(s).
| Time | Temp. | Humidity | Pressure | Rain* | Wind** | Luminosity | Snow |
|---|---|---|---|---|---|---|---|
| 1778090524 | 5° C | 52% | 1017.1 hPa | 0 mm | - | 189 W/m² | - |
| 1778090220 | 5° C | 51% | 1017 hPa | 0 mm | - | 171 W/m² | - |
| 1778089917 | 5° C | 52% | 1017.2 hPa | 0 mm | - | 157 W/m² | - |
| 1778089615 | 5° C | 52% | 1017.1 hPa | 0 mm | - | 149 W/m² | - |
| 1778089311 | 5.56° C | 51% | 1017.3 hPa | 0 mm | - | 180 W/m² | - |
| 1778089009 | 5.56° C | 51% | 1017.2 hPa | 0 mm | - | 242 W/m² | - |
| 1778088706 | 5° C | 52% | 1017.3 hPa | 0 mm | - | 200 W/m² | - |
| 1778088403 | 5° C | 51% | 1017.4 hPa | 0 mm | - | 236 W/m² | - |
| 1778088099 | 5° C | 51% | 1017.3 hPa | 0 mm | - | 318 W/m² | - |
| 1778087792 | 5.56° C | 50% | 1017.5 hPa | 0 mm | - | 257 W/m² | - |
| 1778087489 | 5.56° C | 51% | 1017.5 hPa | 0 mm | - | 226 W/m² | - |
| 1778087185 | 5.56° C | 51% | 1017.4 hPa | 0 mm | - | 287 W/m² | - |
| 1778086877 | 5° C | 52% | 1017.5 hPa | 0 mm | - | 340 W/m² | - |
| 1778086576 | 5° C | 52% | 1017.7 hPa | 0 mm | - | 218 W/m² | - |
| 1778086272 | 5° C | 52% | 1017.7 hPa | 0 mm | - | 274 W/m² | - |
| 1778085969 | 5° C | 52% | 1017.8 hPa | 0 mm | - | 222 W/m² | - |
| 1778085667 | 5° C | 51% | 1017.5 hPa | 0 mm | - | 262 W/m² | - |
| 1778085362 | 5° C | 52% | 1017.5 hPa | 0 mm | - | 271 W/m² | - |
| 1778085058 | 5° C | 52% | 1017.5 hPa | 0 mm | - | 261 W/m² | - |
| 1778084754 | 5° C | 52% | 1017.4 hPa | 0 mm | - | 248 W/m² | - |
| 1778084452 | 4.44° C | 52% | 1017.7 hPa | 0 mm | - | 224 W/m² | - |
| 1778084149 | 4.44° C | 53% | 1017.7 hPa | 0 mm | - | 196 W/m² | - |
| 1778083846 | 4.44° C | 52% | 1017.5 hPa | 0 mm | - | 168 W/m² | - |
| 1778083543 | 4.44° C | 52% | 1017.7 hPa | 0 mm | - | 199 W/m² | - |
| 1778083240 | 4.44° C | 51% | 1017.5 hPa | 0 mm | - | 203 W/m² | - |
* Rain latest hour (hover to see other rain measurements)
** Current wind speed in m/s (hover to see current wind gust speed)